| time (UTC) | temp F | wind direction | speed MPH | gust MPH | rain 1hr in | rain 24hr in | rain mn in | humidity % | barometer mb |
| 20260831172725 | 87 | 192 | 12.0 | 24.0 | 0.00 | 0.00 | 0.00 | 38 | 1017.3 |
| 20260831172220 | 86 | 179 | 10.0 | 15.0 | 0.00 | 0.00 | 0.00 | 39 | 1017.3 |
| 20260831171714 | 87 | 203 | 16.0 | 22.0 | 0.00 | 0.00 | 0.00 | 38 | 1017.5 |
| 20260831171212 | 87 | 182 | 14.0 | 17.0 | 0.00 | 0.00 | 0.00 | 38 | 1017.2 |
| 20260831170708 | 86 | 143 | 16.0 | 22.0 | 0.00 | 0.00 | 0.00 | 39 | 1017.5 |
| 20260831170205 | 86 | 162 | 13.0 | 16.0 | 0.00 | 0.00 | 0.00 | 38 | 1017.5 |
| 20260831165700 | 86 | 187 | 15.0 | 18.0 | 0.00 | 0.00 | 0.00 | 39 | 1017.5 |
| 20260831165156 | 86 | 168 | 13.0 | 15.0 | 0.00 | 0.00 | 0.00 | 40 | 1017.5 |
| 20260831164652 | 85 | 166 | 17.0 | 19.0 | 0.00 | 0.00 | 0.00 | 40 | 1017.3 |
| 20260831164148 | 84 | 202 | 10.0 | 16.0 | 0.00 | 0.00 | 0.00 | 42 | 1017.6 |
| 20260831163643 | 84 | 171 | 15.0 | 20.0 | 0.00 | 0.00 | 0.00 | 43 | 1017.6 |
| 20260831163139 | 84 | 147 | 10.0 | 16.0 | 0.00 | 0.00 | 0.00 | 43 | 1017.3 |
| 20260831162638 | 83 | 160 | 15.0 | 19.0 | 0.00 | 0.00 | 0.00 | 44 | 1017.3 |
| 20260831162136 | 83 | 216 | 9.0 | 12.0 | 0.00 | 0.00 | 0.00 | 46 | 1017.4 |
| 20260831161632 | 83 | 190 | 11.0 | 13.0 | 0.00 | 0.00 | 0.00 | 45 | 1017.2 |
| 20260831161128 | 82 | 143 | 11.0 | 13.0 | 0.00 | 0.00 | 0.00 | 46 | 1017.5 |
| 20260831160627 | 83 | 195 | 8.0 | 15.0 | 0.00 | 0.00 | 0.00 | 46 | 1017.4 |
| 20260831160123 | 83 | 160 | 14.0 | 17.0 | 0.00 | 0.00 | 0.00 | 46 | 1017.5 |
| 20260831155617 | 82 | 204 | 15.0 | 17.0 | 0.00 | 0.00 | 0.00 | 48 | 1017.4 |
| 20260831155112 | 81 | 182 | 9.0 | 14.0 | 0.00 | 0.00 | 0.00 | 48 | 1017.4 |
| 20260831154608 | 81 | 198 | 14.0 | 18.0 | 0.00 | 0.00 | 0.00 | 49 | 1017.1 |
| 20260831154108 | 81 | 192 | 13.0 | 17.0 | 0.00 | 0.00 | 0.00 | 49 | 1017.1 |
| 20260831153607 | 80 | 178 | 7.0 | 19.0 | 0.00 | 0.00 | 0.00 | 50 | 1017.0 |
| 20260831153104 | 80 | 206 | 15.0 | 16.0 | 0.00 | 0.00 | 0.00 | 51 | 1017.4 |
| 20260831152559 | 79 | 171 | 12.0 | 16.0 | 0.00 | 0.00 | 0.00 | 51 | 1017.4 |
| 20260831152055 | 80 | 216 | 11.0 | 14.0 | 0.00 | 0.00 | 0.00 | 51 | 1017.7 |
| 20260831151554 | 79 | 186 | 7.0 | 9.0 | 0.00 | 0.00 | 0.00 | 52 | 1017.2 |
| 20260831151049 | 78 | 202 | 5.0 | 10.0 | 0.00 | 0.00 | 0.00 | 53 | 1017.3 |
| 20260831150544 | 78 | 224 | 11.0 | 13.0 | 0.00 | 0.00 | 0.00 | 54 | 1017.4 |
| 20260831150040 | 78 | 239 | 7.0 | 13.0 | 0.00 | 0.00 | 0.00 | 54 | 1017.5 |
| 20260831145534 | 78 | 201 | 5.0 | 13.0 | 0.00 | 0.00 | 0.00 | 54 | 1017.4 |
| 20260831145031 | 78 | 213 | 11.0 | 16.0 | 0.00 | 0.00 | 0.00 | 53 | 1017.2 |
| 20260831144526 | 78 | 199 | 10.0 | 16.0 | 0.00 | 0.00 | 0.00 | 53 | 1017.0 |
| 20260831144021 | 77 | 202 | 14.0 | 19.0 | 0.00 | 0.00 | 0.00 | 55 | 1016.6 |
| 20260831143515 | 76 | 203 | 20.0 | 23.0 | 0.00 | 0.00 | 0.00 | 55 | 1016.3 |
| 20260831143011 | 76 | 207 | 13.0 | 21.0 | 0.00 | 0.00 | 0.00 | 57 | 1016.7 |
| 20260831142508 | 76 | 195 | 11.0 | 22.0 | 0.00 | 0.00 | 0.00 | 57 | 1016.5 |
| 20260831142002 | 75 | 205 | 14.0 | 21.0 | 0.00 | 0.00 | 0.00 | 57 | 1016.7 |
| 20260831141456 | 75 | 212 | 12.0 | 19.0 | 0.00 | 0.00 | 0.00 | 57 | 1016.6 |
| 20260831140951 | 75 | 205 | 17.0 | 21.0 | 0.00 | 0.00 | 0.00 | 58 | 1016.6 |
| 20260831140450 | 74 | 210 | 17.0 | 21.0 | 0.00 | 0.00 | 0.00 | 59 | 1016.5 |
| 20260831135949 | 74 | 203 | 12.0 | 18.0 | 0.00 | 0.00 | 0.00 | 58 | 1016.5 |
| 20260831135448 | 74 | 204 | 12.0 | 20.0 | 0.00 | 0.00 | 0.00 | 59 | 1016.4 |
| 20260831134943 | 74 | 207 | 14.0 | 15.0 | 0.00 | 0.00 | 0.00 | 58 | 1016.5 |
| 20260831134435 | 73 | 221 | 13.0 | 20.0 | 0.00 | 0.00 | 0.00 | 59 | 1016.5 |
| 20260831133934 | 74 | 219 | 12.0 | 17.0 | 0.00 | 0.00 | 0.00 | 58 | 1016.4 |
| 20260831133434 | 73 | 202 | 15.0 | 18.0 | 0.00 | 0.00 | 0.00 | 59 | 1016.3 |
| 20260831132930 | 73 | 201 | 11.0 | 12.0 | 0.00 | 0.00 | 0.00 | 59 | 1016.4 |
| 20260831132425 | 73 | 210 | 10.0 | 12.0 | 0.00 | 0.00 | 0.00 | 59 | 1016.4 |
| 20260831131924 | 72 | 211 | 9.0 | 12.0 | 0.00 | 0.00 | 0.00 | 59 | 1016.3 |
| 20260831131420 | 72 | 219 | 11.0 | 11.0 | 0.00 | 0.00 | 0.00 | 60 | 1016.0 |
| 20260831130915 | 71 | 209 | 8.0 | 9.0 | 0.00 | 0.00 | 0.00 | 60 | 1015.8 |
| 20260831130411 | 71 | 223 | 6.0 | 9.0 | 0.00 | 0.00 | 0.00 | 61 | 1015.8 |
| 20260831125910 | 71 | 225 | 7.0 | 9.0 | 0.00 | 0.00 | 0.00 | 61 | 1016.0 |
| 20260831125405 | 71 | 217 | 7.0 | 9.0 | 0.00 | 0.00 | 0.00 | 61 | 1015.7 |
| 20260831124901 | 70 | 219 | 6.0 | 8.0 | 0.00 | 0.00 | 0.00 | 62 | 1015.8 |
| 20260831124356 | 70 | 228 | 6.0 | 8.0 | 0.00 | 0.00 | 0.00 | 62 | 1015.5 |
| 20260831123851 | 70 | 231 | 8.0 | 10.0 | 0.00 | 0.00 | 0.00 | 61 | 1015.5 |
| 20260831123350 | 71 | 215 | 12.0 | 12.0 | 0.00 | 0.00 | 0.00 | 60 | 1015.5 |
| 20260831122845 | 71 | 215 | 7.0 | 12.0 | 0.00 | 0.00 | 0.00 | 60 | 1015.4 |
| 20260831122340 | 71 | 224 | 7.0 | 10.0 | 0.00 | 0.00 | 0.00 | 60 | 1015.5 |
| 20260831121840 | 71 | 219 | 9.0 | 11.0 | 0.00 | 0.00 | 0.00 | 59 | 1015.7 |
| 20260831121337 | 71 | 214 | 9.0 | 11.0 | 0.00 | 0.00 | 0.00 | 59 | 1015.3 |
| 20260831120832 | 71 | 209 | 9.0 | 12.0 | 0.00 | 0.00 | 0.00 | 58 | 1015.1 |
| 20260831120326 | 71 | 208 | 8.0 | 10.0 | 0.00 | 0.00 | 0.00 | 58 | 1015.3 |
| 20260831115821 | 71 | 208 | 6.0 | 10.0 | 0.00 | 0.00 | 0.00 | 57 | 1015.6 |
| 20260831115318 | 71 | 204 | 7.0 | 10.0 | 0.00 | 0.00 | 0.00 | 58 | 1015.5 |
| 20260831114817 | 70 | 220 | 5.0 | 8.0 | 0.00 | 0.00 | 0.00 | 58 | 1015.4 |
| 20260831114315 | 70 | 208 | 5.0 | 7.0 | 0.00 | 0.00 | 0.00 | 57 | 1015.3 |
| 20260831113811 | 70 | 201 | 6.0 | 7.0 | 0.00 | 0.00 | 0.00 | 57 | 1015.1 |
| 20260831113306 | 70 | 197 | 5.0 | 6.0 | 0.00 | 0.00 | 0.00 | 57 | 1015.3 |
| 20260831112800 | 69 | 155 | 5.0 | 6.0 | 0.00 | 0.00 | 0.00 | 58 | 1015.8 |
| 20260831112255 | 70 | 160 | 4.0 | 4.0 | 0.00 | 0.00 | 0.00 | 57 | 1015.4 |
| 20260831111750 | 70 | 217 | 3.0 | 5.0 | 0.00 | 0.00 | 0.00 | 57 | 1015.3 |
| 20260831111247 | 70 | 218 | 4.0 | 6.0 | 0.00 | 0.00 | 0.00 | 56 | 1015.4 |
| 20260831110743 | 71 | 199 | 6.0 | 6.0 | 0.00 | 0.00 | 0.00 | 56 | 1015.3 |
| 20260831110237 | 71 | 195 | 5.0 | 5.0 | 0.00 | 0.00 | 0.00 | 56 | 1015.5 |
| 20260831105735 | 70 | 211 | 3.0 | 3.0 | 0.00 | 0.00 | 0.00 | 56 | 1015.4 |
| 20260831105232 | 70 | 220 | 3.0 | 4.0 | 0.00 | 0.00 | 0.00 | 57 | 1015.4 |
| 20260831104726 | 69 | 231 | 3.0 | 4.0 | 0.00 | 0.00 | 0.00 | 57 | 1015.5 |
| 20260831104224 | 70 | 227 | 3.0 | 4.0 | 0.00 | 0.00 | 0.00 | 57 | 1015.3 |
| 20260831103723 | 69 | 202 | 3.0 | 4.0 | 0.00 | 0.00 | 0.00 | 57 | 1015.4 |
| 20260831103219 | 69 | 235 | 4.0 | 5.0 | 0.00 | 0.00 | 0.00 | 57 | 1015.0 |
| 20260831102718 | 70 | 239 | 5.0 | 6.0 | 0.00 | 0.00 | 0.00 | 56 | 1015.4 |
| 20260831102213 | 71 | 226 | 5.0 | 6.0 | 0.00 | 0.00 | 0.00 | 55 | 1015.4 |
| 20260831101709 | 71 | 216 | 4.0 | 5.0 | 0.00 | 0.00 | 0.00 | 55 | 1015.3 |
| 20260831101204 | 71 | 233 | 5.0 | 6.0 | 0.00 | 0.00 | 0.00 | 55 | 1015.5 |
| 20260831100700 | 72 | 219 | 5.0 | 7.0 | 0.00 | 0.00 | 0.00 | 53 | 1015.5 |
| 20260831100156 | 72 | 203 | 5.0 | 7.0 | 0.00 | 0.00 | 0.00 | 53 | 1015.1 |
| 20260831095653 | 72 | 216 | 6.0 | 7.0 | 0.00 | 0.00 | 0.00 | 53 | 1015.1 |
| 20260831095149 | 72 | 207 | 6.0 | 7.0 | 0.00 | 0.00 | 0.00 | 53 | 1015.3 |
| 20260831094644 | 72 | 206 | 5.0 | 7.0 | 0.00 | 0.00 | 0.00 | 53 | 1015.0 |
| 20260831094140 | 72 | 211 | 5.0 | 8.0 | 0.00 | 0.00 | 0.00 | 53 | 1015.3 |
| 20260831093636 | 72 | 210 | 6.0 | 8.0 | 0.00 | 0.00 | 0.00 | 53 | 1015.4 |
| 20260831093132 | 73 | 217 | 7.0 | 10.0 | 0.00 | 0.00 | 0.00 | 52 | 1015.0 |
| 20260831092628 | 73 | 210 | 7.0 | 8.0 | 0.00 | 0.00 | 0.00 | 52 | 1015.4 |
| 20260831092123 | 73 | 206 | 5.0 | 7.0 | 0.00 | 0.00 | 0.00 | 52 | 1015.4 |
| 20260831091622 | 73 | 213 | 5.0 | 7.0 | 0.00 | 0.00 | 0.00 | 52 | 1015.4 |
| 20260831091118 | 73 | 218 | 7.0 | 9.0 | 0.00 | 0.00 | 0.00 | 51 | 1015.4 |
| 20260831090613 | 73 | 217 | 6.0 | 7.0 | 0.00 | 0.00 | 0.00 | 51 | 1015.1 |
| 20260831090109 | 74 | 215 | 7.0 | 10.0 | 0.00 | 0.00 | 0.00 | 50 | 1015.1 |
| 20260831085605 | 74 | 200 | 10.0 | 11.0 | 0.00 | 0.00 | 0.00 | 50 | 1015.0 |
| 20260831085100 | 74 | 204 | 7.0 | 11.0 | 0.00 | 0.00 | 0.00 | 50 | 1014.8 |
| 20260831084556 | 74 | 197 | 8.0 | 12.0 | 0.00 | 0.00 | 0.00 | 49 | 1014.8 |
| 20260831084052 | 74 | 205 | 10.0 | 11.0 | 0.00 | 0.00 | 0.00 | 50 | 1014.8 |
| 20260831083547 | 74 | 190 | 8.0 | 11.0 | 0.00 | 0.00 | 0.00 | 49 | 1014.9 |
| 20260831083042 | 75 | 191 | 7.0 | 12.0 | 0.00 | 0.00 | 0.00 | 49 | 1014.7 |
| 20260831082541 | 74 | 179 | 6.0 | 9.0 | 0.00 | 0.00 | 0.00 | 49 | 1014.7 |
| 20260831082037 | 75 | 194 | 9.0 | 13.0 | 0.00 | 0.00 | 0.00 | 49 | 1014.7 |
| 20260831081533 | 75 | 201 | 14.0 | 15.0 | 0.00 | 0.00 | 0.00 | 49 | 1014.5 |
| 20260831081028 | 75 | 193 | 7.0 | 12.0 | 0.00 | 0.00 | 0.00 | 48 | 1014.8 |
| 20260831080522 | 75 | 198 | 9.0 | 12.0 | 0.00 | 0.00 | 0.00 | 48 | 1014.8 |
| 20260831080018 | 75 | 200 | 10.0 | 11.0 | 0.00 | 0.00 | 0.00 | 48 | 1014.9 |
| 20260831075513 | 76 | 193 | 9.0 | 13.0 | 0.00 | 0.00 | 0.00 | 47 | 1014.8 |
| 20260831075009 | 76 | 209 | 11.0 | 13.0 | 0.00 | 0.00 | 0.00 | 47 | 1014.9 |
| 20260831074509 | 76 | 192 | 12.0 | 13.0 | 0.00 | 0.00 | 0.00 | 47 | 1014.9 |
| 20260831074008 | 76 | 187 | 9.0 | 12.0 | 0.00 | 0.00 | 0.00 | 46 | 1015.1 |
| 20260831073503 | 76 | 196 | 8.0 | 12.0 | 0.00 | 0.00 | 0.00 | 46 | 1014.9 |
| 20260831073002 | 76 | 194 | 8.0 | 13.0 | 0.00 | 0.00 | 0.00 | 46 | 1014.7 |
| 20260831072457 | 76 | 196 | 10.0 | 12.0 | 0.00 | 0.00 | 0.00 | 46 | 1014.8 |
| 20260831071954 | 76 | 199 | 6.0 | 11.0 | 0.00 | 0.00 | 0.00 | 46 | 1014.8 |
| 20260831071453 | 76 | 185 | 10.0 | 13.0 | 0.00 | 0.00 | 0.00 | 45 | 1014.6 |
| 20260831070948 | 77 | 185 | 8.0 | 14.0 | 0.00 | 0.00 | 0.00 | 45 | 1014.7 |
| 20260831070447 | 77 | 178 | 10.0 | 16.0 | 0.00 | 0.00 | 0.00 | 44 | 1014.9 |
| 20260831065946 | 77 | 165 | 15.0 | 18.0 | 0.00 | 0.00 | 0.00 | 44 | 1015.0 |
| 20260831065445 | 77 | 171 | 11.0 | 17.0 | 0.00 | 0.00 | 0.00 | 44 | 1014.9 |
| 20260831064940 | 77 | 178 | 11.0 | 17.0 | 0.00 | 0.00 | 0.00 | 44 | 1014.9 |
| 20260831064435 | 77 | 183 | 11.0 | 15.0 | 0.00 | 0.00 | 0.00 | 44 | 1014.8 |
| 20260831063931 | 77 | 173 | 10.0 | 16.0 | 0.00 | 0.00 | 0.00 | 44 | 1014.9 |
| 20260831063425 | 77 | 171 | 10.0 | 14.0 | 0.00 | 0.00 | 0.00 | 44 | 1014.9 |
| 20260831062919 | 77 | 165 | 11.0 | 13.0 | 0.00 | 0.00 | 0.00 | 44 | 1014.9 |
| 20260831062415 | 77 | 160 | 15.0 | 16.0 | 0.00 | 0.00 | 0.00 | 44 | 1014.8 |
| 20260831061914 | 77 | 172 | 11.0 | 14.0 | 0.00 | 0.00 | 0.00 | 44 | 1014.8 |
| 20260831061413 | 77 | 180 | 10.0 | 15.0 | 0.00 | 0.00 | 0.00 | 43 | 1014.9 |
| 20260831060909 | 77 | 180 | 13.0 | 15.0 | 0.00 | 0.00 | 0.00 | 43 | 1014.8 |
| 20260831060404 | 78 | 180 | 12.0 | 14.0 | 0.00 | 0.00 | 0.00 | 43 | 1014.8 |
| 20260831055903 | 78 | 170 | 13.0 | 14.0 | 0.00 | 0.00 | 0.00 | 42 | 1014.7 |
| 20260831055358 | 78 | 191 | 14.0 | 17.0 | 0.00 | 0.00 | 0.00 | 42 | 1014.7 |
| 20260831054854 | 78 | 165 | 12.0 | 15.0 | 0.00 | 0.00 | 0.00 | 42 | 1014.7 |
| 20260831054348 | 78 | 166 | 12.0 | 15.0 | 0.00 | 0.00 | 0.00 | 42 | 1014.6 |
| 20260831053848 | 78 | 170 | 13.0 | 16.0 | 0.00 | 0.00 | 0.00 | 41 | 1014.5 |
| 20260831053346 | 79 | 180 | 9.0 | 15.0 | 0.00 | 0.00 | 0.00 | 41 | 1014.3 |
| 20260831052841 | 79 | 165 | 11.0 | 15.0 | 0.00 | 0.00 | 0.00 | 41 | 1014.5 |
| 20260831052341 | 79 | 170 | 16.0 | 16.0 | 0.00 | 0.00 | 0.00 | 41 | 1014.5 |
| 20260831051839 | 79 | 166 | 16.0 | 20.0 | 0.00 | 0.00 | 0.00 | 40 | 1014.6 |
| 20260831051337 | 80 | 174 | 13.0 | 17.0 | 0.00 | 0.00 | 0.00 | 40 | 1014.2 |
| 20260831050832 | 80 | 168 | 16.0 | 18.0 | 0.00 | 0.00 | 0.00 | 40 | 1014.3 |
| 20260831050331 | 80 | 156 | 13.0 | 21.0 | 0.00 | 0.00 | 0.00 | 40 | 1014.2 |
| 20260831045826 | 80 | 170 | 12.0 | 16.0 | 0.00 | 0.00 | 0.00 | 39 | 1014.5 |
| 20260831045320 | 80 | 155 | 19.0 | 20.0 | 0.00 | 0.00 | 0.00 | 39 | 1014.3 |
| 20260831044815 | 80 | 155 | 16.0 | 18.0 | 0.00 | 0.00 | 0.00 | 39 | 1014.1 |
| 20260831044310 | 80 | 167 | 9.0 | 18.0 | 0.00 | 0.00 | 0.00 | 38 | 1014.2 |
| 20260831043806 | 81 | 159 | 15.0 | 21.0 | 0.00 | 0.00 | 0.00 | 38 | 1014.2 |
| 20260831043305 | 81 | 169 | 16.0 | 19.0 | 0.00 | 0.00 | 0.00 | 38 | 1014.3 |
| 20260831042801 | 81 | 163 | 13.0 | 20.0 | 0.00 | 0.00 | 0.00 | 37 | 1014.1 |
| 20260831042255 | 81 | 155 | 17.0 | 21.0 | 0.00 | 0.00 | 0.00 | 37 | 1014.2 |
| 20260831041750 | 81 | 156 | 14.0 | 18.0 | 0.00 | 0.00 | 0.00 | 37 | 1014.2 |
| 20260831041249 | 82 | 153 | 14.0 | 20.0 | 0.00 | 0.00 | 0.00 | 36 | 1014.2 |
| 20260831040744 | 82 | 168 | 12.0 | 23.0 | 0.00 | 0.00 | 0.00 | 36 | 1014.2 |
| 20260831040243 | 82 | 158 | 15.0 | 20.0 | 0.00 | 0.00 | 0.00 | 36 | 1014.3 |
| 20260831035737 | 82 | 162 | 17.0 | 22.0 | 0.00 | 0.00 | 0.00 | 36 | 1014.2 |
| 20260831035236 | 82 | 149 | 18.0 | 20.0 | 0.00 | 0.00 | 0.00 | 35 | 1014.1 |
| 20260831034735 | 83 | 153 | 11.0 | 20.0 | 0.00 | 0.00 | 0.00 | 35 | 1014.1 |
| 20260831034231 | 82 | 158 | 13.0 | 19.0 | 0.00 | 0.00 | 0.00 | 35 | 1013.9 |
| 20260831033726 | 83 | 157 | 13.0 | 20.0 | 0.00 | 0.00 | 0.00 | 35 | 1014.3 |
| 20260831033226 | 83 | 145 | 15.0 | 18.0 | 0.00 | 0.00 | 0.00 | 34 | 1014.0 |
| 20260831032721 | 83 | 159 | 16.0 | 22.0 | 0.00 | 0.00 | 0.00 | 34 | 1014.0 |
| 20260831032216 | 83 | 156 | 12.0 | 18.0 | 0.00 | 0.00 | 0.00 | 34 | 1013.9 |
| 20260831031716 | 83 | 157 | 12.0 | 18.0 | 0.00 | 0.00 | 0.00 | 34 | 1013.7 |
| 20260831031211 | 84 | 149 | 11.0 | 19.0 | 0.00 | 0.00 | 0.00 | 34 | 1013.9 |
| 20260831030710 | 84 | 150 | 19.0 | 21.0 | 0.00 | 0.00 | 0.00 | 33 | 1013.8 |
| 20260831030209 | 84 | 156 | 12.0 | 18.0 | 0.00 | 0.00 | 0.00 | 33 | 1013.6 |
| 20260831025708 | 84 | 151 | 11.0 | 18.0 | 0.00 | 0.00 | 0.00 | 33 | 1013.7 |
| 20260831025203 | 85 | 153 | 16.0 | 19.0 | 0.00 | 0.00 | 0.00 | 33 | 1013.3 |
| 20260831024659 | 85 | 159 | 11.0 | 18.0 | 0.00 | 0.00 | 0.00 | 32 | 1013.3 |
| 20260831024157 | 85 | 151 | 11.0 | 19.0 | 0.00 | 0.00 | 0.00 | 32 | 1012.9 |
| 20260831023656 | 86 | 145 | 11.0 | 17.0 | 0.00 | 0.00 | 0.00 | 32 | 1013.1 |
| 20260831023155 | 85 | 147 | 9.0 | 13.0 | 0.00 | 0.00 | 0.00 | 32 | 1013.1 |
| 20260831022651 | 86 | 145 | 13.0 | 16.0 | 0.00 | 0.00 | 0.00 | 31 | 1013.0 |
| 20260831022145 | 86 | 152 | 14.0 | 18.0 | 0.00 | 0.00 | 0.00 | 31 | 1013.1 |
| 20260831021644 | 86 | 157 | 10.0 | 16.0 | 0.00 | 0.00 | 0.00 | 31 | 1012.6 |
| 20260831021134 | 87 | 145 | 14.0 | 18.0 | 0.00 | 0.00 | 0.00 | 31 | 1012.8 |
| 20260831020630 | 87 | 160 | 12.0 | 17.0 | 0.00 | 0.00 | 0.00 | 31 | 1012.5 |
| 20260831020125 | 87 | 139 | 17.0 | 19.0 | 0.00 | 0.00 | 0.00 | 30 | 1012.6 |
| 20260831015621 | 87 | 157 | 14.0 | 17.0 | 0.00 | 0.00 | 0.00 | 31 | 1012.8 |
| 20260831015120 | 88 | 157 | 12.0 | 16.0 | 0.00 | 0.00 | 0.00 | 30 | 1012.5 |
| 20260831014615 | 88 | 151 | 10.0 | 15.0 | 0.00 | 0.00 | 0.00 | 30 | 1012.4 |
| 20260831014110 | 89 | 153 | 16.0 | 19.0 | 0.00 | 0.00 | 0.00 | 30 | 1012.2 |
| 20260831013606 | 89 | 153 | 14.0 | 18.0 | 0.00 | 0.00 | 0.00 | 29 | 1012.3 |
| 20260831013101 | 89 | 159 | 11.0 | 22.0 | 0.00 | 0.00 | 0.00 | 29 | 1012.2 |
| 20260831012601 | 89 | 157 | 9.0 | 15.0 | 0.00 | 0.00 | 0.00 | 28 | 1012.2 |
| 20260831012055 | 90 | 160 | 14.0 | 23.0 | 0.00 | 0.00 | 0.00 | 28 | 1012.0 |
| 20260831011555 | 90 | 164 | 11.0 | 15.0 | 0.00 | 0.00 | 0.00 | 27 | 1012.2 |
| 20260831011050 | 90 | 160 | 18.0 | 20.0 | 0.00 | 0.00 | 0.00 | 27 | 1012.1 |
| 20260831010546 | 91 | 160 | 17.0 | 18.0 | 0.00 | 0.00 | 0.00 | 27 | 1012.2 |
| 20260831010042 | 91 | 152 | 10.0 | 19.0 | 0.00 | 0.00 | 0.00 | 27 | 1012.3 |
| 20260831005537 | 91 | 152 | 18.0 | 23.0 | 0.00 | 0.00 | 0.00 | 27 | 1012.2 |
| 20260831005036 | 92 | 144 | 15.0 | 22.0 | 0.00 | 0.00 | 0.00 | 27 | 1012.2 |
| 20260831004533 | 92 | 147 | 13.0 | 18.0 | 0.00 | 0.00 | 0.00 | 26 | 1011.8 |
| 20260831004028 | 92 | 161 | 17.0 | 22.0 | 0.00 | 0.00 | 0.00 | 26 | 1012.1 |
| 20260831003524 | 93 | 164 | 13.0 | 17.0 | 0.00 | 0.00 | 0.00 | 26 | 1012.2 |
| 20260831003020 | 93 | 160 | 15.0 | 22.0 | 0.00 | 0.00 | 0.00 | 26 | 1012.3 |
| 20260831002518 | 93 | 154 | 15.0 | 19.0 | 0.00 | 0.00 | 0.00 | 26 | 1012.1 |
| 20260831002014 | 93 | 171 | 17.0 | 20.0 | 0.00 | 0.00 | 0.00 | 26 | 1012.0 |
| 20260831001509 | 93 | 160 | 11.0 | 20.0 | 0.00 | 0.00 | 0.00 | 25 | 1011.8 |
| 20260831001005 | 93 | 150 | 12.0 | 19.0 | 0.00 | 0.00 | 0.00 | 25 | 1012.0 |
| 20260831000501 | 93 | 140 | 13.0 | 16.0 | 0.00 | 0.00 | 0.00 | 26 | 1012.0 |
| 20260830235959 | 94 | 151 | 17.0 | 26.0 | 0.00 | 0.00 | 0.00 | 25 | 1012.0 |
| 20260830235455 | 94 | 199 | 14.0 | 17.0 | 0.00 | 0.00 | 0.00 | 24 | 1012.0 |
| 20260830234949 | 95 | 168 | 13.0 | 17.0 | 0.00 | 0.00 | 0.00 | 24 | 1011.6 |
| 20260830234444 | 95 | 167 | 16.0 | 16.0 | 0.00 | 0.00 | 0.00 | 24 | 1012.3 |
| 20260830233940 | 95 | 188 | 14.0 | 24.0 | 0.00 | 0.00 | 0.00 | 24 | 1012.0 |
| 20260830233435 | 95 | 141 | 20.0 | 27.0 | 0.00 | 0.00 | 0.00 | 25 | 1012.0 |
| 20260830232931 | 95 | 157 | 13.0 | 17.0 | 0.00 | 0.00 | 0.00 | 25 | 1012.0 |
| 20260830232427 | 95 | 181 | 9.0 | 16.0 | 0.00 | 0.00 | 0.00 | 25 | 1011.8 |
| 20260830231923 | 95 | 202 | 12.0 | 20.0 | 0.00 | 0.00 | 0.00 | 25 | 1011.8 |
| 20260830231418 | 95 | 160 | 11.0 | 18.0 | 0.00 | 0.00 | 0.00 | 25 | 1012.1 |
| 20260830230918 | 94 | 157 | 11.0 | 14.0 | 0.00 | 0.00 | 0.00 | 26 | 1012.1 |
| 20260830230413 | 94 | 168 | 13.0 | 17.0 | 0.00 | 0.00 | 0.00 | 25 | 1011.8 |
| 20260830225912 | 94 | 243 | 5.0 | 7.0 | 0.00 | 0.00 | 0.00 | 25 | 1012.1 |
| 20260830225408 | 94 | 185 | 8.0 | 17.0 | 0.00 | 0.00 | 0.00 | 25 | 1011.8 |
| 20260830224902 | 94 | 202 | 11.0 | 13.0 | 0.00 | 0.00 | 0.00 | 25 | 1011.8 |
| 20260830224401 | 95 | 202 | 11.0 | 14.0 | 0.00 | 0.00 | 0.00 | 24 | 1012.0 |
| 20260830223858 | 96 | 171 | 11.0 | 14.0 | 0.00 | 0.00 | 0.00 | 23 | 1012.0 |
| 20260830223354 | 97 | 156 | 11.0 | 13.0 | 0.00 | 0.00 | 0.00 | 23 | 1012.1 |
| 20260830222853 | 96 | 211 | 15.0 | 15.0 | 0.00 | 0.00 | 0.00 | 24 | 1012.1 |
| 20260830222349 | 96 | 158 | 3.0 | 7.0 | 0.00 | 0.00 | 0.00 | 24 | 1012.2 |
| 20260830221844 | 96 | 159 | 13.0 | 17.0 | 0.00 | 0.00 | 0.00 | 24 | 1012.0 |
| 20260830221341 | 95 | 203 | 12.0 | 14.0 | 0.00 | 0.00 | 0.00 | 24 | 1011.8 |
| 20260830220836 | 95 | 175 | 13.0 | 15.0 | 0.00 | 0.00 | 0.00 | 24 | 1012.1 |
| 20260830220335 | 96 | 179 | 11.0 | 18.0 | 0.00 | 0.00 | 0.00 | 24 | 1012.1 |
| 20260830215834 | 97 | 191 | 13.0 | 15.0 | 0.00 | 0.00 | 0.00 | 23 | 1012.0 |
| 20260830215328 | 98 | 194 | 7.0 | 14.0 | 0.00 | 0.00 | 0.00 | 23 | 1012.2 |
| 20260830214823 | 98 | 206 | 15.0 | 19.0 | 0.00 | 0.00 | 0.00 | 23 | 1012.3 |
| 20260830214318 | 98 | 210 | 11.0 | 13.0 | 0.00 | 0.00 | 0.00 | 23 | 1012.3 |
| 20260830213818 | 98 | 173 | 8.0 | 14.0 | 0.00 | 0.00 | 0.00 | 23 | 1012.2 |
| 20260830213313 | 97 | 200 | 9.0 | 18.0 | 0.00 | 0.00 | 0.00 | 24 | 1012.6 |
| 20260830212809 | 96 | 216 | 5.0 | 7.0 | 0.00 | 0.00 | 0.00 | 24 | 1012.6 |
| 20260830212306 | 95 | 236 | 5.0 | 12.0 | 0.00 | 0.00 | 0.00 | 25 | 1012.8 |
| 20260830211803 | 95 | 210 | 9.0 | 12.0 | 0.00 | 0.00 | 0.00 | 24 | 1012.8 |
| 20260830211303 | 95 | 232 | 4.0 | 10.0 | 0.00 | 0.00 | 0.00 | 24 | 1012.8 |
| 20260830210759 | 96 | 212 | 5.0 | 8.0 | 0.00 | 0.00 | 0.00 | 24 | 1012.8 |
| 20260830210258 | 96 | 192 | 3.0 | 5.0 | 0.00 | 0.00 | 0.00 | 24 | 1012.6 |
| 20260830205755 | 95 | 114 | 4.0 | 13.0 | 0.00 | 0.00 | 0.00 | 25 | 1012.8 |
| 20260830205250 | 96 | 226 | 2.0 | 6.0 | 0.00 | 0.00 | 0.00 | 24 | 1013.0 |
| 20260830204746 | 95 | 266 | 9.0 | 12.0 | 0.00 | 0.00 | 0.00 | 25 | 1013.1 |
| 20260830204244 | 95 | 245 | 10.0 | 11.0 | 0.00 | 0.00 | 0.00 | 24 | 1013.3 |
| 20260830203741 | 97 | 252 | 14.0 | 19.0 | 0.00 | 0.00 | 0.00 | 23 | 1013.2 |
| 20260830203236 | 96 | 232 | 11.0 | 13.0 | 0.00 | 0.00 | 0.00 | 24 | 1013.2 |
| 20260830202736 | 95 | 264 | 8.0 | 13.0 | 0.00 | 0.00 | 0.00 | 25 | 1013.3 |
| 20260830202231 | 94 | 233 | 8.0 | 18.0 | 0.00 | 0.00 | 0.00 | 26 | 1013.4 |
| 20260830201730 | 95 | 210 | 9.0 | 11.0 | 0.00 | 0.00 | 0.00 | 25 | 1013.2 |
| 20260830201226 | 95 | 232 | 13.0 | 16.0 | 0.00 | 0.00 | 0.00 | 25 | 1013.6 |
| 20260830200721 | 94 | 249 | 7.0 | 13.0 | 0.00 | 0.00 | 0.00 | 25 | 1013.3 |
| 20260830200220 | 97 | 228 | 14.0 | 19.0 | 0.00 | 0.00 | 0.00 | 24 | 1013.8 |
| 20260830195716 | 95 | 186 | 2.0 | 16.0 | 0.00 | 0.00 | 0.00 | 24 | 1013.8 |
| 20260830195214 | 95 | 116 | 0.0 | 10.0 | 0.00 | 0.00 | 0.00 | 25 | 1013.9 |
| 20260830194713 | 95 | 267 | 7.0 | 17.0 | 0.00 | 0.00 | 0.00 | 25 | 1014.1 |
| 20260830194208 | 95 | 228 | 19.0 | 20.0 | 0.00 | 0.00 | 0.00 | 25 | 1013.9 |
| 20260830193707 | 95 | 178 | 3.0 | 10.0 | 0.00 | 0.00 | 0.00 | 25 | 1013.9 |
| 20260830193202 | 94 | 150 | 3.0 | 7.0 | 0.00 | 0.00 | 0.00 | 25 | 1014.0 |
| 20260830192658 | 95 | 192 | 5.0 | 13.0 | 0.00 | 0.00 | 0.00 | 25 | 1014.0 |
| 20260830192152 | 94 | 262 | 8.0 | 18.0 | 0.00 | 0.00 | 0.00 | 25 | 1014.0 |
| 20260830191644 | 94 | 229 | 11.0 | 16.0 | 0.00 | 0.00 | 0.00 | 25 | 1014.0 |
| 20260830191137 | 94 | 265 | 15.0 | 21.0 | 0.00 | 0.00 | 0.00 | 25 | 1013.9 |
| 20260830190633 | 94 | 245 | 18.0 | 19.0 | 0.00 | 0.00 | 0.00 | 26 | 1014.1 |
| 20260830190128 | 93 | 293 | 11.0 | 19.0 | 0.00 | 0.00 | 0.00 | 26 | 1014.5 |
| 20260830185626 | 95 | 245 | 10.0 | 14.0 | 0.00 | 0.00 | 0.00 | 25 | 1014.1 |
| 20260830185122 | 94 | 252 | 11.0 | 17.0 | 0.00 | 0.00 | 0.00 | 26 | 1014.2 |
| 20260830184621 | 94 | 279 | 12.0 | 16.0 | 0.00 | 0.00 | 0.00 | 26 | 1014.1 |
| 20260830184116 | 95 | 244 | 11.0 | 20.0 | 0.00 | 0.00 | 0.00 | 25 | 1014.3 |
| 20260830183611 | 94 | 231 | 19.0 | 24.0 | 0.00 | 0.00 | 0.00 | 26 | 1014.5 |
| 20260830183107 | 95 | 256 | 15.0 | 19.0 | 0.00 | 0.00 | 0.00 | 26 | 1014.5 |
| 20260830182602 | 93 | 216 | 12.0 | 18.0 | 0.00 | 0.00 | 0.00 | 27 | 1014.6 |
| 20260830182058 | 93 | 252 | 13.0 | 14.0 | 0.00 | 0.00 | 0.00 | 27 | 1014.7 |
| 20260830181554 | 93 | 225 | 15.0 | 23.0 | 0.00 | 0.00 | 0.00 | 26 | 1015.0 |
| 20260830181053 | 93 | 262 | 8.0 | 21.0 | 0.00 | 0.00 | 0.00 | 27 | 1014.7 |
| 20260830180552 | 94 | 241 | 19.0 | 27.0 | 0.00 | 0.00 | 0.00 | 26 | 1015.0 |
| 20260830180052 | 92 | 254 | 9.0 | 20.0 | 0.00 | 0.00 | 0.00 | 28 | 1015.0 |
| 20260830175551 | 94 | 259 | 17.0 | 22.0 | 0.00 | 0.00 | 0.00 | 27 | 1015.0 |
| 20260830175046 | 93 | 248 | 16.0 | 26.0 | 0.00 | 0.00 | 0.00 | 26 | 1015.1 |
| 20260830174542 | 92 | 239 | 18.0 | 23.0 | 0.00 | 0.00 | 0.00 | 28 | 1015.1 |
| 20260830174037 | 91 | 245 | 14.0 | 22.0 | 0.00 | 0.00 | 0.00 | 28 | 1015.3 |
| 20260830173533 | 92 | 246 | 11.0 | 17.0 | 0.00 | 0.00 | 0.00 | 28 | 1015.5 |